If you wish to contribute or participate in the discussions about articles you are invited to join SKYbrary as a registered user

 Actions

Huambo/Albano Machado Airport

From SKYbrary Wiki

FNHU
Airport
ICAO: FNHU – IATA: NOV
Summary
Name Huambo/Albano Machado Airport
Region Africa
Territory Angola AO.gif
Location Huambo, Huambo
Serving Huambo
Elevation 1,702.918 m
5,587 ft
5,587 ft1,702.918 m
Coordinates 12° 48' 31.96" S, 15° 45' 37.97" E
Runways
Designator Length Width Surface ROPS
1/19 1000 m3,280.84 ft
0 m0 ft
UNK /
11/29 2660 m8,727.034 ft
45 m147.638 ft
ASP /


METAR
Observation FNHU 121000Z 16010KT CAVOK 26/12 Q1021
Station Huambo Nova Lisboa
Date/Time 12 December 2019 10:00:00
Wind direction 160°
Wind speed 10 kts
Lowest cloud amount clouds and visibility OK
Temperature 26°C
Dew point 12°C
Humidity 41%
QNH 1021 hPa
Weather condition n/a

The Albano Machado Airport is a public airport located southeast of Huambo, a city in Angola. It used to be named the Nova Lisboa Airport, since in colonial times the city was called Nova Lisboa, or New Lisbon.

Maps

Terrain

Loading map...

Airport Layout

Loading map...


Accidents & Serious Incidents at or in vicinity of FNHU

None on SKYbrary